Showing default

KINEIS-4C, 63301

Orbit data source: Space-Track

KINEIS-4C, 63301 is a French payload satellite in SSO that was launched on Tue, 18 Mar 2025 UTC via an ELECTRON launch vehicle from the Rocket Lab Launch Complex (RLLC). Payload-class satellites include a variety of spacecraft equipped with specific instruments for various scientific and technological missions. These include communications satellites like Starlink; space stations such as the ISS; scientific satellites like the Hubble; Earth observation satellites from companies like Planet Labs, Umbra, and HawkEye 360; GPS; miniature CubeSats for education and research; and military/defense satellites.

Loading next visibility...
Identifier
63301, 2025-056B
Orbit
SSO
Country
Flag of FRFR
Related business
Manufacturer
KINEIS
Mission
Operational Commercial Communications
Bus & Motor
CUBESAT 16U, Unknown motor
Mass
28 kg wet, 28 kg dry
Launch date (UTC)
2025-03-18 (7 months ago)
Launch vehicle
ELECTRON
Launch site
Rocket Lab Launch Complex (RLLC)
Object type
Payload
Rocket body
Debris
Shape & HBR
Box + 2 Pan + 1 Ant, 1.0 m
Radar Cross Section
0.229 m², Medium (>0.1 m² and < 1m²)

Expand to show TLE details & history
Last TLE update: 6 hours ago

TLE from 6 hours ago
0 KINEIS-4C
1 63301U 25056B   25298.93424994  .00003333  00000-0  53226-3 0  9994
2 63301  97.9982  62.5253 0001754  53.0164 307.1204 14.72531642 32667
Epoch: 2025-10-25T22:25Z
TLE epoch observation values (Epoch: 2025-10-25T22:25:19.194Z)
Latitude
-0.00003°
Longitude
51.63765°
Altitude
655.262 km
Speed
7.53 km/s
True Right ascension
04h 10m 06s
True Declination
0° 00' 00"
Sunlit
Object was in full shadow at epoch
Visualization orbit readout
Latitude
Unknown
Longitude
Unknown
Altitude
Unknown
Speed
Unknown
Apparent Right ascension
Unknown
Apparent Declination
Unknown
Sunlit
N/A
Visualization observer readout
Local Sidereal Time
23:29:16
Azimuth
Unknown
Elevation
Unknown
Doppler factor
Unknown
Orbital elements
Apogee altitude
651.286 km
Perigee altitude
648.82 km
Semi-major axis
7,028.19 km
Eccentricity
0.00018
Inclination
97.9982°
RAAN
62.5253°
Arg. of periapsis
53.0164°
True anomaly
307.10437°
Mean anomaly
307.1204°
Eccentric anomaly
307.11239°
Mean motion
3.68365 °/min
Orbital period
97.73 mins
BSTAR
0.00053226
Loading maneuver chart data...
Computing Atmospheric mass density...
Loading historical data...
Loading historical data...
Loading historical data...
Loading historical data...
Loading historical data...
Loading historical data...
Loading historical data...

Documentation

Showing up to 5 results
|